Broughton Island Airport, Nunavut

8:13 AM ADT on May 20, 2018 (GMT -0300)
Broughton Island Airport

Weather History for CYVM - May, 2013

Change the Weather History Date:

Thursday, May 16, 2013

  Actual Average Record
Temperature  
Mean Temperature 11 °F -  
Max Temperature 19 °F 24 °F 34 °F (2016)
Min Temperature 3 °F 16 °F 1 °F (2015)
Degree Days  
Heating Degree Days 54    
Moisture  
Dew Point 8 °F    
Average Humidity 85    
Maximum Humidity 93    
Minimum Humidity 53    
Precipitation  
Precipitation 0.00 in - - ()
Sea Level Pressure  
Sea Level Pressure 30.34 in    
Wind  
Wind Speed 4 mph ()    
Max Wind Speed 18 mph    
Max Gust Speed -    
Visibility 7.4 miles    
Events Fog , Snow    
Averages and records for this station are not official NWS values.
T = Trace of Precipitation, MM = Missing Value Source: Averaged Metar Reports

Daily Weather History Graph

Daily Weather History Graph

Search for Another Location

Airport or City:

Astronomy

May. 16, 2013 Rise Set
Actual Time 3:05 AM ADT 11:23 PM ADT
Civil Twilight Sun does not set Sun does not set
Nautical Twilight Sun does not set Sun does not set
Astronomical Twilight Sun does not set Sun does not set
Moon 9:50 AM ADT (5/16) 2:29 AM ADT (5/16)
Length of Visible Light 24h 00m
Length of Day
20h 18m
Waxing Crescent, 35% of the Moon is Illuminated
May 16
Waxing Crescent
May 18
First Quarter
May 25
Full
May 31
Last Quarter
Jun 8
New

Hourly Weather History & Observations

Time (ADT) Temp. Windchill Dew Point Humidity Pressure Visibility Wind Dir Wind Speed Gust Speed Precip Events Conditions
12:00 AM 12.2 °F 6.1 °F 10.4 °F 92% 30.42 in 2.5 mi ENE 3.5 mph - N/A Snow Light Snow
12:03 AM 12.2 °F 6.1 °F 10.4 °F 92% 30.42 in 2.5 mi ENE 3.5 mph - N/A Snow Light Snow
12:06 AM 12.2 °F 6.1 °F 10.4 °F 92% 30.42 in 2.5 mi East 3.5 mph - N/A Snow Light Snow
12:07 AM 12.2 °F 6.1 °F 10.4 °F 92% 30.42 in 3.0 mi East 3.5 mph - N/A Snow Light Snow
12:24 AM 12.2 °F - 8.6 °F 85% 30.42 in 6.0 mi Calm Calm - N/A Snow Light Snow
12:29 AM 10.4 °F - 6.8 °F 85% 30.42 in 9.0 mi ESE 2.3 mph - N/A Snow Light Snow
12:43 AM 10.4 °F 4.0 °F 8.6 °F 92% 30.42 in 9.0 mi ESE 3.5 mph - N/A   Partly Cloudy
1:00 AM 10.4 °F - 6.8 °F 85% 30.42 in 9.0 mi Calm Calm - N/A   Clear
1:07 AM 5.0 °F - 3.2 °F 92% 30.42 in 1.2 mi Variable 2.3 mph - N/A   Clear
1:09 AM 5.0 °F - 3.2 °F 92% 30.42 in 0.5 mi Variable 2.3 mph - N/A Fog Light Freezing Fog
1:10 AM 5.0 °F - 3.2 °F 92% 30.42 in 0.4 mi Variable 2.3 mph - N/A Snow Snow
1:19 AM 5.0 °F - 3.2 °F 92% 30.42 in 0.2 mi NNW 2.3 mph - N/A Fog Light Freezing Fog
1:34 AM 6.8 °F - 5.0 °F 92% 30.42 in 0.8 mi Calm Calm - N/A   Mostly Cloudy
1:37 AM 6.8 °F - 5.0 °F 92% 30.42 in 9.0 mi Calm Calm - N/A   Overcast
2:00 AM 6.8 °F -2.0 °F 3.2 °F 85% 30.41 in 9.0 mi NE 4.6 mph - N/A   Overcast
2:27 AM 5.0 °F -4.1 °F 3.2 °F 92% 30.40 in 5.0 mi ENE 4.6 mph - N/A   Overcast
2:36 AM 5.0 °F -4.1 °F 1.4 °F 85% 30.40 in 2.5 mi ENE 4.6 mph - N/A   Overcast
2:52 AM 5.0 °F -5.6 °F 3.2 °F 92% 30.40 in 0.5 mi ENE 5.8 mph - N/A Fog Light Freezing Fog
3:00 AM 6 °F - 4 °F 84% 30.40 in 0 mi ENE 4.6 mph - - Fog Fog
3:00 AM 6.8 °F -2.0 °F 3.2 °F 85% 30.40 in 0.5 mi ENE 4.6 mph - N/A Fog Light Freezing Fog
3:13 AM 5.0 °F - 1.4 °F 85% 30.40 in 0.6 mi Variable 2.3 mph - N/A   Overcast
3:19 AM 3.2 °F - -0.4 °F 85% 30.40 in 5.0 mi Calm Calm - N/A   Overcast
3:20 AM 3.2 °F - -0.4 °F 85% 30.40 in 9.0 mi Calm Calm - N/A   Overcast
4:00 AM 5.0 °F - 1.4 °F 85% 30.38 in 9.0 mi Variable 2.3 mph - N/A   Overcast
4:24 AM 8.6 °F 0.1 °F 6.8 °F 92% 30.38 in 6.0 mi ESE 4.6 mph - N/A Snow Light Snow
4:33 AM 10.4 °F 0.8 °F 8.6 °F 92% 30.38 in 9.0 mi SE 5.8 mph - N/A   Overcast
5:00 AM 6.8 °F - 5.0 °F 92% 30.38 in 9.0 mi Calm Calm - N/A   Overcast
6:00 AM 10.4 °F - 8.6 °F 92% 30.36 in 9.0 mi Variable 2.3 mph - N/A   Overcast
7:00 AM 14.0 °F 6.5 °F 12.2 °F 93% 30.35 in 9.0 mi ENE 4.6 mph - N/A   Overcast
8:00 AM 12.2 °F - 10.4 °F 92% 30.33 in 9.0 mi NNE 2.3 mph - N/A   Overcast
8:54 AM 14.0 °F 8.2 °F 12.2 °F 93% 30.32 in 9.0 mi WNW 3.5 mph - N/A Snow Light Snow
9:00 AM 14 °F - 12 °F 88% 30.32 in 10 mi WNW 3.5 mph - - Snow Light Snow
9:00 AM 14.0 °F 8.2 °F 12.2 °F 93% 30.32 in 9.0 mi WNW 3.5 mph - N/A Snow Light Snow
9:16 AM 14.0 °F 6.5 °F 12.2 °F 93% 30.32 in 9.0 mi NW 4.6 mph - N/A   Overcast
9:24 AM 14.0 °F 8.2 °F 12.2 °F 93% 30.32 in 9.0 mi North 3.5 mph - N/A Snow Light Snow
9:43 AM 14.0 °F - 12.2 °F 93% 30.31 in 9.0 mi Variable 2.3 mph - N/A   Overcast
10:00 AM 14.0 °F 5.1 °F 12.2 °F 93% 30.30 in 10.0 mi ENE 5.8 mph - N/A Snow Light Snow
11:00 AM 15.8 °F 6.1 °F 12.2 °F 86% 30.28 in 10.0 mi East 6.9 mph - N/A Snow Light Snow
12:00 PM 15.8 °F - 12.2 °F 86% 30.26 in 6.0 mi North 2.3 mph - N/A Snow Light Snow
1:00 PM 17.6 °F 7.3 °F 12.2 °F 79% 30.24 in 10.0 mi NNE 8.1 mph - N/A Snow Light Snow
2:00 PM 17.6 °F 4.3 °F 12.2 °F 79% 30.22 in 10.0 mi NNE 12.7 mph - N/A Snow Light Snow
3:00 PM 18 °F - 13 °F 70% 30.22 in 10 mi NNE 15.0 mph - - Snow Light Snow
3:00 PM 17.6 °F 2.7 °F 12.2 °F 79% 30.21 in 10.0 mi North 16.1 mph - N/A Snow Light Snow
3:46 PM 17.6 °F 2.2 °F 12.2 °F 79% 30.21 in 15.0 mi North 17.3 mph - N/A   Partly Cloudy
4:00 PM 15.8 °F -0.6 °F 12.2 °F 86% 30.21 in 15.0 mi North 18.4 mph - N/A   Partly Cloudy
5:00 PM 17.6 °F 3.2 °F 12.2 °F 79% 30.21 in 15.0 mi North 15.0 mph - N/A   Partly Cloudy
6:00 PM 17.6 °F 2.7 °F 10.4 °F 73% 30.21 in 15.0 mi North 16.1 mph - N/A   Partly Cloudy
7:00 PM 17.6 °F 8.2 °F 8.6 °F 68% 30.21 in 15.0 mi ENE 6.9 mph - N/A   Partly Cloudy
8:00 PM 15.8 °F 6.1 °F 6.8 °F 68% 30.21 in 9.0 mi ENE 6.9 mph - N/A   Clear
9:00 PM 14 °F - 4 °F 53% 30.22 in 10 mi North 6.9 mph - -  
9:00 PM 14.0 °F 5.1 °F 5.0 °F 67% 30.22 in 9.0 mi NNE 5.8 mph - N/A   Clear
10:00 PM 14.0 °F 3.9 °F 5.0 °F 67% 30.21 in 9.0 mi ENE 6.9 mph - N/A   Clear
11:00 PM 8.6 °F 2.0 °F -0.4 °F 67% 30.21 in 9.0 mi WSW 3.5 mph - N/A   Clear